KC5AV Weather Reports


time (UTC)temp
F
wind
direction
speed
knots
gust
knots
rain 1hr
in
rain 24hr
in
rain mn
in
humidity
%
barometer
mb
20260510060937 68 135 2.6 2.6 0.00 0.00 0.00 95 1012.8
20260510060434 68 116 0.0 1.7 0.00 0.00 0.00 95 1013.0
20260510055930 68 66 0.9 1.7 0.00 0.00 0.00 95 1012.9
20260510055426 68 123 2.6 5.2 0.00 0.00 0.00 95 1012.7
20260510054924 68 166 0.9 1.7 0.00 0.00 0.00 95 1012.8
20260510054420 68 113 0.0 3.5 0.00 0.00 0.00 95 1012.6
20260510053915 68 116 1.7 2.6 0.00 0.00 0.00 95 1012.5
20260510053411 68 108 3.5 4.3 0.00 0.00 0.00 95 1012.9
20260510052907 68 119 1.7 4.3 0.00 0.00 0.00 95 1012.9
20260510052403 68 97 4.3 4.3 0.00 0.00 0.00 95 1012.7
20260510051859 68 99 2.6 3.5 0.00 0.00 0.00 95 1012.5
20260510051356 68 97 4.3 5.2 0.00 0.00 0.00 95 1012.4
20260510050852 68 89 2.6 4.3 0.00 0.00 0.00 96 1012.5
20260510050349 68 84 1.7 5.2 0.00 0.00 0.00 96 1012.7
20260510045846 68 71 0.9 3.5 0.00 0.21 0.21 96 1012.5
20260510045343 68 187 0.0 3.5 0.00 0.21 0.21 96 1012.6
20260510044840 68 71 0.9 3.5 0.00 0.21 0.21 95 1012.6
20260510044337 68 119 0.9 3.5 0.00 0.21 0.21 95 1012.7
20260510043833 68 14 0.9 3.5 0.00 0.21 0.21 95 1012.8
20260510043329 68 71 1.7 3.5 0.00 0.21 0.21 95 1012.7
20260510042828 68 88 3.5 4.3 0.00 0.21 0.21 95 1012.7
20260510042323 68 83 1.7 4.3 0.00 0.21 0.21 95 1012.9
20260510041820 69 114 4.3 5.2 0.00 0.21 0.21 95 1013.0
20260510041317 69 96 0.9 2.6 0.00 0.21 0.21 95 1013.1
20260510040814 69 95 1.7 1.7 0.00 0.21 0.21 95 1013.2
20260510040311 69 101 0.9 2.6 0.00 0.21 0.21 95 1013.2
20260510035806 69 51 0.9 2.6 0.00 0.21 0.21 95 1013.0
20260510035306 69 144 0.9 2.6 0.00 0.21 0.21 95 1013.1
20260510034758 69 125 0.9 2.6 0.00 0.21 0.21 95 1013.0
20260510034256 69 96 1.7 4.3 0.00 0.21 0.21 95 1012.8
20260510033752 69 83 2.6 2.6 0.00 0.21 0.21 95 1013.1
20260510033250 69 86 2.6 3.5 0.00 0.21 0.21 95 1012.7
20260510032746 69 92 0.9 3.5 0.00 0.21 0.21 95 1012.9
20260510032242 69 92 0.9 4.3 0.00 0.21 0.21 94 1012.7
20260510031737 69 115 1.7 2.6 0.00 0.21 0.21 94 1012.8
20260510031233 69 101 0.9 2.6 0.00 0.21 0.21 94 1012.7
20260510030733 70 130 0.9 2.6 0.00 0.21 0.21 94 1012.6
20260510030231 70 125 1.7 1.7 0.00 0.21 0.21 94 1012.5
20260510025728 70 146 0.0 1.7 0.00 0.21 0.21 93 1012.4
20260510025226 70 116 0.9 1.7 0.00 0.21 0.21 93 1012.4
20260510024722 70 80 0.0 2.6 0.00 0.21 0.21 93 1012.4
20260510024219 70 92 0.9 2.6 0.00 0.21 0.21 93 1012.3
20260510023714 70 99 0.0 2.6 0.00 0.21 0.21 92 1012.3
20260510023211 70 91 2.6 4.3 0.00 0.21 0.21 92 1012.3
20260510022707 71 149 1.7 4.3 0.00 0.21 0.21 92 1012.2
20260510022202 71 21 0.0 3.5 0.00 0.21 0.21 91 1012.0
20260510021657 71 116 3.5 3.5 0.00 0.21 0.21 91 1012.0
20260510021155 71 84 1.7 3.5 0.00 0.21 0.21 91 1012.0
20260510020650 71 121 1.7 7.0 0.00 0.21 0.21 90 1011.8
20260510020146 72 126 3.5 7.0 0.00 0.21 0.21 90 1011.9
20260510015642 72 118 1.7 3.5 0.00 0.21 0.21 90 1011.7
20260510015138 72 100 3.5 5.2 0.00 0.21 0.21 89 1011.8
20260510014633 73 127 1.7 3.5 0.00 0.21 0.21 89 1011.8
20260510014131 73 93 2.6 5.2 0.00 0.21 0.21 89 1011.7
20260510013631 74 107 1.7 4.3 0.00 0.21 0.21 89 1011.7
20260510013126 74 143 1.7 4.3 0.00 0.21 0.21 88 1011.4
20260510012626 75 115 0.9 1.7 0.00 0.21 0.21 87 1011.4
20260510012123 75 65 2.6 6.1 0.00 0.21 0.21 86 1011.5
20260510011622 76 100 2.6 7.0 0.00 0.21 0.21 86 1011.3
20260510011118 76 346 0.0 1.7 0.00 0.21 0.21 86 1011.5
20260510010615 76 100 0.9 2.6 0.00 0.21 0.21 85 1011.2
20260510010112 77 20 1.7 1.7 0.00 0.21 0.21 84 1011.1
20260510005607 77 123 1.7 1.7 0.00 0.21 0.21 83 1010.9
20260510005105 77 134 1.7 3.5 0.00 0.21 0.21 83 1011.0
20260510004603 77 108 2.6 2.6 0.00 0.21 0.21 82 1010.7
20260510004101 78 96 0.9 0.9 0.00 0.21 0.21 82 1010.8
20260510003557 78 269 0.0 1.7 0.00 0.21 0.21 81 1010.7
20260510003053 79 117 0.0 0.9 0.00 0.21 0.21 80 1010.7
20260510002548 79 64 0.0 1.7 0.00 0.21 0.21 79 1010.7
20260510002046 80 44 0.0 2.6 0.00 0.21 0.21 79 1010.7
20260510001543 80 110 0.9 2.6 0.00 0.21 0.21 77 1010.4
20260510001041 81 189 0.9 2.6 0.00 0.21 0.21 77 1010.5
20260510000536 81 95 0.0 3.5 0.00 0.21 0.21 77 1010.2
20260510000033 81 111 1.7 3.5 0.00 0.21 0.21 76 1010.1
20260509235530 81 226 0.0 2.6 0.00 0.21 0.21 76 1010.3
20260509235027 81 112 0.9 2.6 0.00 0.21 0.21 75 1010.3
20260509234523 82 92 1.7 2.6 0.00 0.21 0.21 75 1010.2
20260509234021 82 96 1.7 2.6 0.00 0.21 0.21 75 1010.1
20260509233518 82 23 1.7 4.3 0.00 0.21 0.21 75 1010.1
20260509233015 82 14 1.7 1.7 0.00 0.21 0.21 74 1010.1
20260509232512 82 53 0.0 3.5 0.00 0.21 0.21 74 1010.2
20260509232008 82 20 1.7 3.5 0.00 0.21 0.21 75 1010.2
20260509231505 82 26 1.7 2.6 0.00 0.21 0.21 73 1010.2
20260509231002 82 63 0.0 1.7 0.00 0.21 0.21 75 1010.1
20260509230459 83 141 0.0 2.6 0.00 0.21 0.21 73 1010.1
20260509225955 82 147 0.0 1.7 0.00 0.21 0.21 75 1010.2
20260509225451 82 349 0.9 2.6 0.00 0.21 0.21 74 1010.1
20260509224947 83 72 0.0 2.6 0.00 0.21 0.21 73 1010.0
20260509224443 83 140 0.9 3.5 0.00 0.21 0.21 74 1010.0
20260509223940 83 25 0.0 2.6 0.00 0.21 0.21 74 1009.8
20260509223437 84 344 0.9 2.6 0.00 0.21 0.21 72 1009.8
20260509222934 84 11 0.9 4.3 0.00 0.21 0.21 70 1010.0
20260509222429 84 156 2.6 2.6 0.00 0.21 0.21 72 1009.8
20260509221925 83 160 0.0 1.7 0.00 0.21 0.21 72 1009.9
20260509221422 82 11 1.7 3.5 0.00 0.21 0.21 72 1009.9
20260509220918 82 144 0.0 1.7 0.00 0.21 0.21 73 1009.8
20260509220414 84 126 1.7 2.6 0.00 0.21 0.21 71 1009.8
20260509215910 84 14 1.7 2.6 0.00 0.21 0.21 71 1009.7
20260509215406 83 355 0.0 3.5 0.00 0.21 0.21 72 1009.9
20260509214904 83 12 1.7 4.3 0.00 0.21 0.21 72 1010.0
20260509214401 83 29 1.7 5.2 0.00 0.21 0.21 72 1010.0
20260509213858 82 304 0.9 3.5 0.00 0.21 0.21 76 1010.1
20260509213354 82 357 1.7 3.5 0.00 0.21 0.21 74 1010.3
20260509212851 83 19 1.7 3.5 0.00 0.21 0.21 73 1010.3
20260509212349 82 17 1.7 1.7 0.00 0.21 0.21 76 1010.3
20260509211844 82 27 1.7 1.7 0.00 0.21 0.21 74 1010.3
20260509211340 84 152 1.7 2.6 0.00 0.21 0.21 71 1010.2
20260509210837 87 70 0.9 3.5 0.00 0.21 0.21 66 1010.2
20260509210334 87 345 1.7 2.6 0.00 0.21 0.21 68 1010.3
20260509205834 86 317 1.7 2.6 0.00 0.21 0.21 67 1010.1
20260509205329 85 331 0.9 1.7 0.00 0.21 0.21 71 1010.4
20260509204825 84 129 0.0 2.6 0.00 0.21 0.21 72 1010.5
20260509204322 84 6 0.0 4.3 0.00 0.21 0.21 71 1010.5
20260509203819 84 75 1.7 3.5 0.00 0.21 0.21 71 1010.6
20260509203315 82 76 1.7 4.3 0.00 0.21 0.21 74 1010.6
20260509202811 82 132 1.7 4.3 0.00 0.21 0.21 76 1010.6
20260509202308 82 5 1.7 1.7 0.00 0.21 0.21 75 1010.6
20260509201807 83 73 3.5 4.3 0.00 0.21 0.21 73 1010.7
20260509201304 82 99 1.7 4.3 0.00 0.21 0.21 77 1010.7
20260509200800 81 316 0.9 4.3 0.00 0.21 0.21 75 1010.8
20260509200255 80 118 1.7 2.6 0.00 0.21 0.21 77 1010.6
20260509195752 79 242 0.0 3.5 0.00 0.21 0.21 80 1010.8
20260509195247 79 21 1.7 2.6 0.00 0.21 0.21 80 1011.1
20260509194742 79 26 1.7 3.5 0.00 0.21 0.21 80 1011.1
20260509194238 79 94 1.7 1.7 0.00 0.21 0.21 82 1011.1
20260509193735 80 88 1.7 2.6 0.00 0.21 0.21 81 1011.0
20260509193235 80 100 0.9 2.6 0.00 0.21 0.21 81 1011.1
20260509192731 82 81 1.7 3.5 0.00 0.21 0.21 77 1011.1
20260509192226 81 53 1.7 1.7 0.00 0.21 0.21 80 1011.1
20260509191722 80 351 1.7 2.6 0.00 0.21 0.21 78 1011.4
20260509191219 81 333 1.7 5.2 0.00 0.21 0.21 78 1011.3
20260509190715 79 0 0.0 2.6 0.00 0.21 0.21 81 1011.4
20260509190212 79 45 0.0 3.5 0.00 0.21 0.21 82 1011.4
20260509185710 78 130 0.9 2.6 0.00 0.21 0.21 84 1011.5
20260509185206 78 214 0.0 1.7 0.00 0.21 0.21 83 1011.6
20260509184703 78 17 0.9 1.7 0.00 0.21 0.21 86 1011.9
20260509184200 77 129 0.0 1.7 0.00 0.21 0.21 87 1011.9
20260509183656 76 67 1.7 2.6 0.00 0.21 0.21 87 1011.9
20260509183152 77 128 0.9 2.6 0.00 0.21 0.21 86 1011.9
20260509182647 76 97 1.7 2.6 0.00 0.21 0.21 87 1011.7
20260509182145 76 89 1.7 2.6 0.00 0.21 0.21 87 1011.8
20260509181643 76 118 0.0 1.7 0.00 0.21 0.21 87 1012.1
20260509181141 76 129 0.0 0.0 0.00 0.21 0.21 88 1012.0
20260509180637 76 110 0.0 0.9 0.00 0.21 0.21 88 1012.2
20260509180133 76 32 0.0 1.7 0.00 0.21 0.21 88 1012.2
20260509175629 75 49 0.9 1.7 0.00 0.21 0.21 88 1012.1
20260509175126 75 205 0.0 1.7 0.00 0.21 0.21 87 1012.1
20260509174622 76 142 0.0 0.0 0.00 0.21 0.21 89 1012.1
20260509174117 75 5 0.0 1.7 0.00 0.21 0.21 89 1012.3
20260509173613 75 48 1.7 1.7 0.00 0.21 0.21 88 1012.1
20260509173109 75 13 0.0 1.7 0.00 0.21 0.21 89 1012.1
20260509172606 75 296 0.0 0.0 0.00 0.21 0.21 91 1012.3
20260509172102 74 159 0.0 0.0 0.00 0.21 0.21 91 1012.4
20260509171558 74 0 0.0 0.9 0.00 0.21 0.21 91 1012.3
20260509171054 74 55 1.7 1.7 0.00 0.21 0.21 91 1012.3
20260509170550 74 38 0.0 2.6 0.00 0.21 0.21 91 1012.3
20260509170047 73 63 0.0 2.6 0.00 0.21 0.21 92 1012.3
20260509165545 73 145 0.0 1.7 0.00 0.21 0.21 92 1012.4
20260509165041 73 129 0.0 1.7 0.00 0.21 0.21 93 1012.2
20260509164537 73 91 1.7 1.7 0.00 0.21 0.21 93 1012.4
20260509164033 73 100 1.7 2.6 0.00 0.21 0.21 94 1012.4
20260509163531 72 108 1.7 2.6 0.00 0.21 0.21 94 1012.3
20260509163026 72 118 0.0 2.6 0.00 0.21 0.21 94 1012.4
20260509162524 72 148 0.0 1.7 0.00 0.21 0.21 94 1012.4
20260509162019 72 20 0.9 0.9 0.00 0.21 0.21 94 1012.3
20260509161516 72 108 0.9 1.7 0.00 0.21 0.21 94 1012.2
20260509161016 72 189 0.0 1.7 0.00 0.21 0.21 94 1012.3
20260509160512 72 109 1.7 1.7 0.00 0.21 0.21 95 1012.2
20260509160008 71 98 1.7 1.7 0.00 0.21 0.21 95 1012.3
20260509155504 71 98 1.7 2.6 0.00 0.21 0.21 95 1012.3
20260509154955 71 57 1.7 2.6 0.00 0.21 0.21 95 1012.2
20260509154451 71 74 0.9 2.6 0.00 0.21 0.21 95 1012.0
20260509153949 71 8 0.0 1.7 0.00 0.21 0.21 96 1011.8
20260509153446 71 68 0.0 1.7 0.00 0.21 0.21 97 1011.9
20260509152943 70 117 0.0 1.7 0.00 0.21 0.21 97 1012.0
20260509152438 70 43 0.9 0.9 0.00 0.21 0.21 97 1012.0
20260509151936 70 142 0.0 0.0 0.00 0.21 0.21 97 1012.0
20260509151432 70 122 0.0 0.0 0.00 0.21 0.21 97 1011.9
20260509150930 70 113 0.0 1.7 0.00 0.21 0.21 98 1011.8
20260509150427 69 37 0.0 0.9 0.00 0.21 0.21 98 1011.9
20260509145926 69 9 0.9 1.7 0.00 0.21 0.21 98 1011.8
20260509145426 69 82 1.7 1.7 0.00 0.21 0.21 98 1011.9
20260509144921 69 43 0.0 0.0 0.00 0.21 0.21 98 1012.0
20260509144418 69 74 1.7 1.7 0.00 0.21 0.21 98 1012.0
20260509143916 69 15 0.0 0.9 0.00 0.21 0.21 98 1012.1
20260509143413 69 294 0.0 0.0 0.00 0.21 0.21 98 1012.2
20260509142909 69 128 1.7 1.7 0.00 0.21 0.21 98 1012.3
20260509142405 69 92 0.9 1.7 0.00 0.21 0.21 98 1012.4
20260509141901 69 111 0.0 1.7 0.00 0.21 0.21 98 1012.4
20260509141358 69 115 0.0 1.7 0.00 0.21 0.21 98 1012.2
20260509140855 69 63 0.9 0.9 0.00 0.21 0.21 98 1012.0
20260509140352 68 77 0.0 1.7 0.00 0.21 0.21 98 1012.3
20260509135850 68 33 0.9 0.9 0.00 0.21 0.21 98 1012.2
20260509135347 68 64 0.0 0.9 0.00 0.21 0.21 98 1012.3
20260509134844 68 89 0.0 1.7 0.00 0.21 0.21 98 1012.4
20260509134342 68 34 0.9 1.7 0.00 0.21 0.21 98 1012.5
20260509133838 68 41 0.0 0.9 0.00 0.21 0.21 98 1012.6
20260509133335 68 48 0.0 0.9 0.00 0.21 0.21 98 1012.4
20260509132834 68 51 0.0 0.0 0.00 0.21 0.21 98 1012.3
20260509132332 68 87 0.0 0.9 0.00 0.21 0.21 98 1012.4
20260509131828 68 98 0.0 1.7 0.00 0.21 0.21 98 1012.3
20260509131325 68 89 0.0 1.7 0.00 0.21 0.21 98 1012.2
20260509130822 68 89 0.0 0.9 0.00 0.21 0.21 98 1012.3
20260509130317 68 51 1.7 1.7 0.00 0.21 0.21 98 1012.4
20260509125814 68 55 0.0 0.9 0.00 0.21 0.21 98 1012.4
20260509125310 68 89 0.0 0.9 0.00 0.21 0.21 98 1012.1
20260509124807 68 85 0.9 1.7 0.00 0.21 0.21 98 1012.1
20260509124303 68 130 0.0 0.9 0.00 0.21 0.21 98 1012.0
20260509123802 68 104 0.9 1.7 0.00 0.21 0.21 98 1012.0
20260509123259 68 132 0.9 1.7 0.00 0.21 0.21 98 1011.7
20260509122754 68 39 0.9 1.7 0.00 0.21 0.21 98 1011.8
20260509122251 68 97 0.0 1.7 0.00 0.21 0.21 98 1011.8
20260509121748 68 76 0.0 1.7 0.00 0.21 0.21 98 1011.7
20260509121246 68 98 0.9 1.7 0.00 0.21 0.21 98 1011.7
20260509120744 68 123 0.9 1.7 0.00 0.21 0.21 98 1011.6
20260509120241 67 117 0.9 0.9 0.00 0.21 0.21 98 1011.7
20260509115739 67 95 0.9 2.6 0.00 0.21 0.21 98 1011.7
20260509115236 67 34 1.7 1.7 0.00 0.21 0.21 98 1011.7
20260509114734 67 4 0.9 1.7 0.00 0.21 0.21 98 1011.5
20260509114233 67 353 0.9 1.7 0.00 0.21 0.21 98 1011.7
20260509113731 67 107 0.9 1.7 0.00 0.21 0.21 98 1011.5
20260509113228 67 28 0.0 1.7 0.00 0.21 0.21 98 1011.6
20260509112725 67 72 0.9 1.7 0.00 0.21 0.21 98 1011.5
20260509112222 68 33 1.7 2.6 0.00 0.21 0.21 98 1011.3
20260509111718 68 25 1.7 2.6 0.00 0.21 0.21 98 1011.3
20260509111215 68 61 0.9 1.7 0.00 0.21 0.21 98 1011.3
20260509110713 68 77 0.0 1.7 0.00 0.21 0.21 98 1010.8
20260509110210 68 95 0.9 1.7 0.00 0.21 0.21 98 1010.8
20260509105707 68 122 0.0 1.7 0.00 0.21 0.21 98 1010.8
20260509105205 68 35 0.9 1.7 0.00 0.21 0.21 98 1010.8
20260509104702 68 113 0.0 1.7 0.00 0.21 0.21 98 1010.8
20260509104159 68 89 0.0 0.9 0.00 0.21 0.21 98 1011.0
20260509103656 68 89 0.0 1.7 0.00 0.21 0.21 98 1010.7
20260509103154 68 89 0.0 0.9 0.00 0.21 0.21 98 1011.1
20260509102652 68 97 1.7 2.6 0.00 0.21 0.21 98 1010.8
20260509102148 68 102 0.0 0.0 0.00 0.21 0.21 98 1011.0
20260509101644 68 37 0.0 0.0 0.00 0.21 0.21 98 1010.8
20260509101142 68 80 0.9 1.7 0.00 0.21 0.21 98 1010.8
20260509100639 67 109 0.0 0.0 0.00 0.21 0.21 98 1011.1
20260509100136 67 37 0.0 0.0 0.00 0.21 0.21 98 1010.8
20260509095632 68 89 0.0 0.9 0.00 0.21 0.21 98 1010.8
20260509095130 67 118 0.9 0.9 0.00 0.21 0.21 98 1011.0
20260509094626 67 50 0.0 0.0 0.00 0.21 0.21 97 1011.1
20260509094123 67 106 0.9 1.7 0.00 0.21 0.21 97 1010.7
20260509093622 68 89 0.0 1.7 0.00 0.21 0.21 97 1010.7
20260509093118 68 39 0.9 1.7 0.00 0.21 0.21 97 1010.6
20260509092616 68 109 0.0 0.9 0.00 0.21 0.21 97 1010.6
20260509092114 68 89 0.0 0.9 0.00 0.21 0.21 97 1010.5
20260509091612 68 315 0.0 0.0 0.00 0.21 0.21 97 1010.9
20260509091108 68 26 0.0 0.9 0.00 0.21 0.21 97 1010.8
20260509090605 68 269 0.0 1.7 0.00 0.21 0.21 97 1010.8
20260509090058 68 98 0.0 1.7 0.00 0.21 0.21 97 1010.9
20260509085554 68 258 0.0 2.6 0.00 0.21 0.21 97 1011.1
20260509085050 67 356 0.9 1.7 0.00 0.21 0.21 97 1010.9
20260509084548 67 311 0.0 1.7 0.00 0.21 0.21 97 1010.9
20260509084045 67 93 0.0 1.7 0.00 0.21 0.21 97 1010.9
20260509083542 67 44 0.0 0.0 0.00 0.21 0.21 97 1011.0
20260509083038 67 37 0.0 1.7 0.00 0.21 0.21 97 1010.9
20260509082536 66 309 0.0 0.9 0.00 0.21 0.21 97 1011.1
20260509082033 66 34 1.7 2.6 0.00 0.21 0.21 97 1010.9
20260509081530 66 32 0.0 2.6 0.00 0.21 0.21 97 1010.8
20260509081027 66 123 0.0 2.6 0.00 0.21 0.21 97 1010.8
20260509080525 66 81 0.0 1.7 0.00 0.21 0.21 96 1010.8
20260509080023 66 251 0.0 2.6 0.00 0.21 0.21 97 1010.8
20260509075520 66 307 0.0 0.9 0.00 0.21 0.21 97 1010.8
20260509075018 66 63 0.0 0.9 0.00 0.21 0.21 97 1010.8
20260509074515 67 39 0.0 1.7 0.00 0.21 0.21 97 1010.8
20260509074011 67 285 0.9 0.9 0.00 0.21 0.21 97 1011.0
20260509073508 67 32 0.0 1.7 0.00 0.21 0.21 97 1010.9
20260509073004 68 76 0.0 1.7 0.00 0.21 0.21 97 1011.3
20260509072501 68 135 0.0 0.9 0.00 0.21 0.21 97 1010.9
20260509071958 68 95 0.0 1.7 0.00 0.21 0.21 97 1011.0
20260509071454 68 293 0.0 2.6 0.00 0.21 0.21 97 1010.9
20260509070952 68 109 2.6 4.3 0.00 0.21 0.21 97 1011.1
20260509070449 68 97 0.9 3.5 0.02 0.21 0.21 96 1010.8
20260509065944 68 139 2.6 4.3 0.00 0.21 0.21 96 1011.0
20260509065441 68 46 0.9 1.7 0.00 0.21 0.21 96 1010.6
20260509064937 68 155 1.7 2.6 0.02 0.21 0.21 96 1011.3
20260509064435 68 181 0.9 3.5 0.07 0.21 0.21 96 1010.8
20260509063932 68 113 1.7 3.5 0.35 0.20 0.20 95 1010.6
20260509063427 68 109 3.5 3.5 0.38 0.19 0.19 95 1010.8
20260509062924 68 89 1.7 1.7 0.26 0.15 0.15 94 1012.1
20260509062422 68 104 0.0 0.9 0.28 0.13 0.13 94 1013.0
20260509061919 69 37 0.0 0.9 0.24 0.09 0.09 93 1013.0
20260509061417 69 49 1.7 1.7 0.47 0.08 0.08 92 1013.4